This is the latest recevied weather packets stored in our database for station/object KO4APQ. If no packets are shown the sender has not sent any weather packets the latest 10 day(s).
| Time | Temp. | Humidity | Pressure | Rain* | Wind** | Luminosity | Snow |
|---|---|---|---|---|---|---|---|
| 1778094893 | 25° C | 64% | 1014.4 hPa | 0 mm | - | 339 W/m² | - |
| 1778094589 | 24.44° C | 66% | 1014.6 hPa | 0 mm | - | 675 W/m² | - |
| 1778094286 | 24.44° C | 69% | 1014.8 hPa | 0 mm | - | 505 W/m² | - |
| 1778093982 | 23.89° C | 69% | 1015.1 hPa | 0 mm | - | 439 W/m² | - |
| 1778093680 | 23.89° C | 69% | 1015 hPa | 0 mm | - | 430 W/m² | - |
| 1778093376 | 23.89° C | 69% | 1015.1 hPa | 0 mm | - | 390 W/m² | - |
| 1778093073 | 23.89° C | 68% | 1015.2 hPa | 0 mm | - | 345 W/m² | - |
| 1778092771 | 23.89° C | 69% | 1015.1 hPa | 0 mm | - | 459 W/m² | - |
| 1778092466 | 23.89° C | 68% | 1015.2 hPa | 0 mm | - | 359 W/m² | - |
| 1778092163 | 23.89° C | 72% | 1015.3 hPa | 0 mm | - | 508 W/m² | - |
| 1778091861 | 23.89° C | 71% | 1015.1 hPa | 0 mm | - | 301 W/m² | - |
| 1778091558 | 23.89° C | 71% | 1015.2 hPa | 0 mm | - | 356 W/m² | - |
| 1778091256 | 23.33° C | 72% | 1015.2 hPa | 0 mm | - | 688 W/m² | - |
| 1778090952 | 23.33° C | 72% | 1015.1 hPa | 0 mm | - | 357 W/m² | - |
| 1778090648 | 23.33° C | 71% | 1015 hPa | 0 mm | - | 291 W/m² | - |
| 1778090345 | 23.33° C | 70% | 1015.2 hPa | 0 mm | - | 719 W/m² | - |
| 1778090042 | 23.33° C | 72% | 1015.1 hPa | 0 mm | - | 967 W/m² | - |
| 1778089739 | 23.33° C | 73% | 1014.8 hPa | 0 mm | - | 997 W/m² | - |
| 1778089437 | 22.78° C | 78% | 1015.1 hPa | 0 mm | - | 774 W/m² | - |
| 1778089134 | 22.22° C | 78% | 1015.1 hPa | 0 mm | - | 370 W/m² | - |
| 1778088830 | 22.22° C | 79% | 1015.2 hPa | 0 mm | - | 363 W/m² | - |
| 1778088528 | 22.22° C | 78% | 1015.3 hPa | 0 mm | - | 314 W/m² | - |
| 1778088224 | 21.67° C | 82% | 1015.4 hPa | 0 mm | - | 310 W/m² | - |
| 1778087922 | 21.11° C | 80% | 1015.5 hPa | 0 mm | - | 332 W/m² | - |
| 1778087618 | 21.11° C | 81% | 1015.4 hPa | 0 mm | - | 313 W/m² | - |
* Rain latest hour (hover to see other rain measurements)
** Current wind speed in m/s (hover to see current wind gust speed)